STARLINK-1749

Last updated on Fri Nov 06 2020 00:02:03 GMT+0000 (Coordinated Universal Time)

1 46589U 20070BK 20310.83334491 -.00037931 00000-0 -40997-3 0 9999 2 46589 53.0026 292.8866 0001011 72.0631 48.2910 15.62776532 5589

Satellite not in orbit